Location: Saratoga Springs
(43.0831°N, 73.7850°W)
Time: 21:00:50
(UTC-04:00)

SR - Pass Details

Date: 23 April 2024
Orbit: 579 x 859 km, 66.7° (Epoch: 29 May)

Event Time Altitude Azimuth Distance (km) Brightness Sun altitude
Exits shadow 01:39:31 34° 51° (NE) 1,240 ? -33.2°
Drops below altitude 10° 01:42:27 10° 38° (NE) 2,255 ? -33.1°
Sets 01:44:45 0° 35° (NE) 3,136 ? -33.0°
